Погода в Эль-Бахе

Саудовская Аравия     20°00′34″N   41°27′56″E
темп.,
°C
ветер,
м/с
пор.,
м/с
влажн.,
%
обл.,
%
осадки,
мм/ч
давл.,
гПа
погр.,
м
28 сентября, вт
вт2800:00+24всв113633 0.0 101213
03:00+23всв22270 0.0 101212
06:00+22всв112633 0.0 101211
09:00+27вюв121818 0.0 10122011
12:00+29юз341929 0.0 10103392
15:00+28юз752892 0.0 10092152
18:00+25зюз543989 0.0 1010833
21:00+24зюз224695 0.0 1012297
29 сентября, ср
ср2900:00+24ссз114438 0.0 1011110
03:00+24ссв354473 0.0 1010569
06:00+22ссв22462 0.0 101120
09:00+26сз23260 0.0 10111031
12:00+28зюз462743 0.0 10092803
15:00+26юз654363 0.3 10081405
18:00+23зюз446462 1.0 1009611
21:00+22зюз126357 1.7 1011204
30 сентября, чт
чт3000:00+23всв24535 0.0 1011323
03:00+21ссв00390 0.0 101011
06:00+20ссз01390 0.0 101111
09:00+25зюз12270 0.0 1012805
12:00+27юз55283 0.0 10102545
15:00+27зюз753760 0.0 10082123
18:00+23юз445934 0.3 1010674
21:00+22зюз226525 0.7 1012232
1 октября, пт
пт100:00+23ссв225438 0.0 101192
03:00+22ссв115789 0.0 101113
06:00+21св114897 0.0 101211
09:00+25ююв01226 0.0 1012827
12:00+28юз33191 0.0 10102809
15:00+28юз642918 0.0 10082413
18:00+25зюз444027 0.0 1010828
21:00+23з114947 0.0 1012215
2 октября, сб
сб200:00+24ссв234184 0.0 101153
03:00+22ссв323595 0.0 101125
06:00+22св33265 0.0 101122
09:00+26в24154 0.0 1011717
12:00+29ююв23135 0.0 10093273
15:00+30юз44185 0.0 10083026
18:00+27зюз333510 0.0 1009750
21:00+25с12405 0.0 1011139